Location: Chacón
(10.5789°N, 66.9317°W)
Time: 20:14:15
(UTC+00:00)

Sakura Rocket - Pass Details

Date: 17 August 2024
Orbit: 475 x 1710 km, 28.7° (Epoch: 09 September)

Event Time Altitude Azimuth Distance (km) Brightness Sun altitude
Exits shadow 09:46:18 - 272° (W) 2,954 5.9 -8.4°
Reaches altitude 10° 09:46:43 10° 270° (W) 2,836 5.8 -8.3°
Maximum altitude 09:53:08 35° 207° (SSW) 1,920 5.2 -6.8°
Drops below altitude 10° 10:01:24 10° 145° (SE) 3,670 7.3 -4.8°
Sets 10:05:15 0° 137° (SE) 4,794 8.0 -3.9°
